Total_Precipitation_Accumulation
0.00 0.00 0.00 0.00 0.00 0.01 0.00 0.00 0.00 0.00 0.00 0.01 0.01 0.00 0.00 0.00 0.00 0.00 0.01 0.03 0.04 0.05 0.03 0.03 0.03 0.01 0.01 0.02 0.07 0.14 0.19 0.20 0.31 0.33 0.26 0.20 0.12 0.08 0.04 0.02 0.01 0.00 0.00
0.00 0.00 0.00 0.00 0.00 0.00 0.01 0.00 0.00 0.00 0.01 0.01 0.01 0.00 0.00 0.00 0.00 0.00 0.01 0.02 0.05 0.09 0.08 0.10 0.09 0.04 0.04 0.04 0.07 0.13 0.17 0.18 0.21 0.24 0.27 0.31 0.30 0.23 0.11 0.02 0.02 0.02 0.00
0.02 0.00 0.00 0.00 0.02 0.02 0.02 0.01 0.00 0.00 0.00 0.01 0.00 0.00 0.00 0.00 0.00 0.00 0.00 0.01 0.03 0.10 0.17 0.22 0.22 0.18 0.12 0.09 0.09 0.12 0.16 0.16 0.16 0.17 0.17 0.15 0.12 0.11 0.06 0.02 0.02 0.03 0.01
0.06 0.03 0.03 0.05 0.05 0.03 0.03 0.02 0.00 0.00 0.00 0.00 0.00 0.00 0.00 0.00 0.00 0.00 0.00 0.00 0.00 0.04 0.11 0.19 0.29 0.35 0.29 0.19 0.11 0.07 0.07 0.07 0.07 0.05 0.02 0.02 0.01 0.01 0.01 0.01 0.03 0.05 0.01
0.19 0.12 0.13 0.13 0.11 0.08 0.05 0.03 0.02 0.01 0.00 0.00 0.00 0.00 0.00 0.00 0.00 0.00 0.00 0.00 0.00 0.00 0.01 0.03 0.11 0.13 0.21 0.26 0.16 0.08 0.05 0.03 0.02 0.01 0.00 0.00 0.00 0.00 0.00 0.01 0.01 0.02 0.01
0.42 0.32 0.30 0.22 0.15 0.16 0.15 0.13 0.07 0.03 0.01 0.01 0.00 0.00 0.00 0.00 0.00 0.00 0.00 0.00 0.00 0.00 0.00 0.00 0.00 0.01 0.08 0.21 0.22 0.10 0.04 0.03 0.04 0.04 0.01 0.00 0.00 0.00 0.00 0.00 0.00 0.00 0.00
0.41 0.39 0.41 0.35 0.24 0.20 0.23 0.24 0.16 0.10 0.05 0.02 0.02 0.01 0.00 0.00 0.00 0.00 0.00 0.00 0.00 0.00 0.00 0.00 0.00 0.01 0.01 0.02 0.05 0.06 0.05 0.06 0.06 0.05 0.03 0.01 0.00 0.00 0.00 0.00 0.01 0.01 0.01
0.27 0.26 0.38 0.40 0.30 0.24 0.25 0.30 0.24 0.19 0.13 0.07 0.09 0.10 0.04 0.02 0.01 0.00 0.00 0.00 0.00 0.00 0.00 0.00 0.00 0.00 0.00 0.01 0.01 0.01 0.02 0.04 0.03 0.02 0.01 0.00 0.00 0.00 0.00 0.00 0.01 0.01 0.03
0.24 0.22 0.29 0.31 0.23 0.20 0.25 0.30 0.28 0.33 0.34 0.23 0.23 0.30 0.20 0.13 0.10 0.03 0.00 0.00 0.00 0.00 0.00 0.00 0.00 0.00 0.00 0.00 0.00 0.00 0.00 0.01 0.01 0.01 0.00 0.00 0.00 0.00 0.01 0.02 0.03 0.03 0.03
0.20 0.14 0.13 0.14 0.12 0.11 0.13 0.16 0.23 0.38 0.52 0.48 0.38 0.35 0.29 0.21 0.15 0.09 0.02 0.00 0.00 0.00 0.00 0.00 0.00 0.00 0.00 0.00 0.00 0.00 0.00 0.00 0.00 0.01 0.01 0.00 0.01 0.01 0.02 0.02 0.03 0.03 0.02
0.18 0.14 0.11 0.10 0.10 0.09 0.07 0.08 0.14 0.26 0.43 0.56 0.52 0.41 0.31 0.23 0.14 0.09 0.06 0.02 0.00 0.00 0.00 0.00 0.00 0.00 0.00 0.00 0.00 0.00 0.00 0.00 0.00 0.00 0.00 0.01 0.01 0.01 0.01 0.01 0.02 0.01 0.01
0.12 0.12 0.11 0.11 0.10 0.08 0.04 0.05 0.11 0.14 0.21 0.31 0.35 0.28 0.24 0.23 0.23 0.18 0.13 0.09 0.04 0.01 0.00 0.00 0.00 0.00 0.00 0.00 0.00 0.00 0.00 0.00 0.00 0.00 0.00 0.00 0.00 0.00 0.01 0.00 0.01 0.01 0.01
0.11 0.11 0.09 0.07 0.05 0.03 0.03 0.05 0.10 0.08 0.09 0.14 0.17 0.14 0.15 0.18 0.19 0.18 0.16 0.18 0.16 0.07 0.02 0.00 0.00 0.00 0.00 0.00 0.00 0.00 0.00 0.00 0.00 0.00 0.00 0.00 0.00 0.00 0.00 0.00 0.00 0.00 0.00
0.15 0.11 0.08 0.07 0.05 0.04 0.03 0.07 0.06 0.03 0.04 0.09 0.10 0.07 0.07 0.13 0.19 0.17 0.15 0.19 0.18 0.17 0.10 0.03 0.00 0.00 0.00 0.00 0.00 0.00 0.00 0.00 0.00 0.00 0.00 0.00 0.00 0.00 0.00 0.00 0.00 0.00 0.00
0.08 0.06 0.07 0.08 0.07 0.04 0.03 0.05 0.04 0.04 0.03 0.03 0.05 0.06 0.06 0.10 0.16 0.19 0.17 0.14 0.13 0.15 0.15 0.11 0.05 0.02 0.01 0.00 0.00 0.00 0.00 0.00 0.00 0.00 0.00 0.00 0.00 0.00 0.00 0.00 0.00 0.00 0.00
0.05 0.04 0.04 0.04 0.03 0.02 0.01 0.02 0.03 0.07 0.06 0.05 0.06 0.06 0.07 0.08 0.12 0.15 0.17 0.15 0.10 0.07 0.08 0.08 0.11 0.05 0.03 0.02 0.01 0.00 0.00 0.00 0.00 0.00 0.00 0.00 0.00 0.00 0.00 0.00 0.00 0.00 0.00
0.04 0.03 0.02 0.01 0.02 0.03 0.02 0.02 0.03 0.03 0.04 0.04 0.05 0.06 0.10 0.17 0.14 0.13 0.15 0.15 0.12 0.07 0.05 0.05 0.05 0.04 0.03 0.02 0.02 0.01 0.00 0.00 0.00 0.00 0.00 0.00 0.00 0.00 0.00 0.00 0.00 0.00 0.00
0.07 0.04 0.03 0.02 0.03 0.05 0.05 0.05 0.05 0.04 0.03 0.03 0.01 0.01 0.02 0.06 0.10 0.14 0.17 0.15 0.14 0.10 0.07 0.06 0.05 0.03 0.03 0.02 0.03 0.02 0.01 0.00 0.00 0.00 0.00 0.00 0.00 0.00 0.00 0.00 0.00 0.00 0.00
0.11 0.10 0.07 0.06 0.07 0.09 0.10 0.08 0.07 0.06 0.04 0.03 0.01 0.01 0.01 0.02 0.05 0.10 0.16 0.20 0.18 0.12 0.09 0.07 0.07 0.08 0.06 0.04 0.03 0.02 0.01 0.01 0.01 0.00 0.00 0.00 0.00 0.00 0.00 0.00 0.00 0.00 0.00
0.14 0.14 0.09 0.06 0.09 0.14 0.17 0.13 0.08 0.07 0.05 0.02 0.01 0.00 0.01 0.02 0.04 0.08 0.13 0.21 0.27 0.25 0.20 0.15 0.11 0.10 0.10 0.09 0.05 0.03 0.02 0.02 0.02 0.01 0.00 0.00 0.00 0.00 0.00 0.00 0.00 0.00 0.00
0.09 0.11 0.08 0.06 0.09 0.16 0.18 0.14 0.10 0.06 0.05 0.04 0.02 0.00 0.00 0.01 0.03 0.06 0.08 0.16 0.22 0.27 0.28 0.28 0.23 0.17 0.13 0.10 0.08 0.06 0.03 0.03 0.02 0.01 0.00 0.00 0.00 0.00 0.00 0.00 0.00 0.00 0.00
0.03 0.08 0.07 0.06 0.08 0.12 0.16 0.12 0.13 0.12 0.11 0.09 0.04 0.01 0.00 0.00 0.01 0.02 0.04 0.06 0.09 0.14 0.18 0.23 0.28 0.27 0.22 0.17 0.14 0.10 0.05 0.03 0.02 0.02 0.01 0.01 0.00 0.00 0.00 0.00 0.00 0.00 0.00
0.03 0.06 0.06 0.09 0.10 0.09 0.09 0.07 0.16 0.23 0.19 0.12 0.05 0.03 0.02 0.00 0.00 0.01 0.03 0.05 0.06 0.07 0.08 0.10 0.14 0.17 0.19 0.18 0.15 0.10 0.07 0.05 0.05 0.03 0.02 0.01 0.01 0.00 0.00 0.00 0.00 0.00 0.00
0.02 0.06 0.06 0.12 0.11 0.07 0.05 0.05 0.11 0.15 0.15 0.14 0.07 0.03 0.03 0.01 0.01 0.01 0.01 0.01 0.03 0.05 0.04 0.03 0.05 0.09 0.11 0.13 0.13 0.12 0.10 0.08 0.07 0.05 0.04 0.02 0.02 0.01 0.01 0.00 0.00 0.00 0.00
0.01 0.04 0.07 0.09 0.05 0.02 0.01 0.03 0.05 0.09 0.12 0.12 0.08 0.06 0.04 0.04 0.03 0.01 0.00 0.01 0.01 0.01 0.03 0.03 0.04 0.07 0.10 0.14 0.16 0.17 0.17 0.16 0.14 0.13 0.11 0.07 0.05 0.04 0.02 0.02 0.01 0.00 0.00
0.00 0.01 0.03 0.04 0.03 0.03 0.01 0.01 0.02 0.05 0.08 0.09 0.08 0.07 0.09 0.06 0.04 0.02 0.01 0.05 0.09 0.07 0.04 0.06 0.10 0.15 0.17 0.22 0.26 0.25 0.26 0.28 0.27 0.25 0.21 0.17 0.16 0.14 0.11 0.06 0.02 0.01 0.00